Overview Statistics Trail Chart Weather Telemetry Raw packets
 

This is the latest recevied weather packets stored in our database for station/object K7FLA. If no packets are shown the sender has not sent any weather packets the latest 10 day(s).

<< 78 79 80 81 82 83 84 >>
Time Temp. Humidity Pressure Rain* Wind** Luminosity Snow
1788101350 28.33° C 46% 1095.3 hPa 0 mm - 143 W/m² -
1788101046 27.78° C 47% 1095.3 hPa 0 mm - 131 W/m² -
1788100741 27.22° C 49% 1095.4 hPa 0 mm - 116 W/m² -
1788100436 26.67° C 49% 1095.3 hPa 0 mm - 105 W/m² -
1788100136 26.11° C 50% 1095.3 hPa 0 mm - 95 W/m² -
1788099831 25.56° C 54% 1095.3 hPa 0 mm - 84 W/m² -
1788099526 25° C 56% 1095.5 hPa 0 mm - 73 W/m² -
1788099221 23.89° C 59% 1095.2 hPa 0 mm - 64 W/m² -
1788098916 22.78° C 59% 1095.3 hPa 0 mm - 55 W/m² -
1788098611 22.22° C 61% 1095.4 hPa 0 mm - 47 W/m² -
1788098305 21.11° C 63% 1095.1 hPa 0 mm - 39 W/m² -
1788098001 20.56° C 63% 1095.2 hPa 0 mm - 33 W/m² -
1788097697 20° C 63% 1095.1 hPa 0 mm - 21 W/m² -
1788097396 20° C 63% 1095.2 hPa 0 mm - 18 W/m² -
1788097093 20° C 63% 1095.2 hPa 0 mm - 15 W/m² -
1788096788 20° C 63% 1095 hPa 0 mm - 10 W/m² -
1788096483 20° C 62% 1095.1 hPa 0 mm - 7 W/m² -
1788096179 20° C 62% 1094.9 hPa 0 mm - 4 W/m² -
1788095878 20.56° C 63% 1094.7 hPa 0 mm - 3 W/m² -
1788095578 20.56° C 63% 1094.7 hPa 0 mm - 1 W/m² -
1788095273 20.56° C 63% 1094.7 hPa 0 mm - 0 W/m² -
1788094968 20.56° C 63% 1094.7 hPa 0 mm - 0 W/m² -
1788094672 20.56° C 62% 1094.7 hPa 0 mm - 0 W/m² -
1788094363 20.56° C 62% 1094.6 hPa 0 mm - 0 W/m² -
1788094060 20.56° C 62% 1094.8 hPa 0 mm - 0 W/m² -

* Rain latest hour (hover to see other rain measurements)
** Current wind speed in m/s (hover to see current wind gust speed)